Simultaneous Nadir Overpasses (SNOs) Predictions

Prediction of SNOs between GOES-15 and METOP-C Satellite Orbit:

Table of predicted SNOs for the next 14.0 days since TLE Epoch: 1/15/2022
Index Date Time (GOES-15) GOES-15 Lat,Lon METOP-C Lat,Lon Distance(km) Time Diff (sec)
1 01/16/2022 06:17:12 0.03,-128.35 -0.56,-131.03 305.67 80
2 01/17/2022 05:53:52 0.04,-128.35 0.53,-126.03 263.56 80
3 01/18/2022 18:15:24 -0.03,-128.37 0.47,-130.59 253.34 80
4 01/19/2022 17:52:04 -0.03,-128.37 -0.63,-125.59 315.83 80
5 01/21/2022 06:13:46 0.02,-128.35 -0.41,-130.19 209.96 80
6 01/22/2022 05:50:27 0.02,-128.35 0.75,-125.20 358.96 80
7 01/23/2022 18:11:57 -0.01,-128.36 0.30,-129.75 158.62 80
8 01/24/2022 17:48:38 -0.02,-128.36 -0.81,-124.76 410.01 80
9 01/26/2022 06:10:19 0.01,-128.33 -0.23,-129.35 116.88 80
10 01/27/2022 05:47:01 0.02,-128.32 0.93,-124.37 451.08 80
11 01/28/2022 18:08:31 -0.02,-128.32 0.11,-128.92 68.28 80
